TimeCDT,TemperatureF,Dew PointF,Humidity,Sea Level PressureIn,VisibilityMPH,Wind Direction,Wind SpeedMPH,Gust SpeedMPH,PrecipitationIn,Events,Conditions,WindDirDegrees,DateUTC
12:52 AM,57.0,50.0,77,30.04,10.0,NE,9.2,-,N/A,,Clear,40,2013-06-14 05:52:00
1:52 AM,55.9,50.0,80,30.05,10.0,NNE,9.2,-,N/A,,Clear,30,2013-06-14 06:52:00
2:52 AM,53.1,50.0,89,30.05,10.0,North,6.9,-,N/A,,Clear,10,2013-06-14 07:52:00
3:52 AM,52.0,48.9,89,30.06,10.0,North,4.6,-,N/A,,Clear,350,2013-06-14 08:52:00
4:52 AM,51.1,48.0,89,30.07,10.0,North,5.8,-,N/A,,Clear,10,2013-06-14 09:52:00
5:52 AM,52.0,48.9,89,30.08,10.0,NNE,6.9,-,N/A,,Clear,30,2013-06-14 10:52:00
6:52 AM,55.9,51.1,84,30.09,10.0,NE,8.1,-,N/A,,Clear,40,2013-06-14 11:52:00
7:52 AM,61.0,52.0,72,30.10,10.0,NNE,6.9,-,N/A,,Clear,30,2013-06-14 12:52:00
8:52 AM,64.0,53.1,67,30.14,10.0,Calm,Calm,-,N/A,,Clear,0,2013-06-14 13:52:00
9:52 AM,66.9,54.0,63,30.13,10.0,NNE,4.6,-,N/A,,Clear,30,2013-06-14 14:52:00
10:52 AM,69.1,55.0,61,30.11,10.0,ENE,6.9,-,N/A,,Clear,70,2013-06-14 15:52:00
11:52 AM,72.0,55.9,57,30.09,10.0,ENE,11.5,-,N/A,,Clear,60,2013-06-14 16:52:00
12:52 PM,73.0,55.0,53,30.11,10.0,NE,6.9,-,N/A,,Clear,40,2013-06-14 17:52:00
1:52 PM,75.0,53.1,46,30.10,10.0,East,10.4,-,N/A,,Clear,100,2013-06-14 18:52:00
2:52 PM,75.9,55.0,48,30.09,10.0,Calm,Calm,-,N/A,,Clear,0,2013-06-14 19:52:00
3:52 PM,78.1,53.1,42,30.06,10.0,Calm,Calm,-,N/A,,Clear,0,2013-06-14 20:52:00
4:52 PM,77.0,52.0,42,30.04,10.0,ESE,4.6,-,N/A,,Clear,110,2013-06-14 21:52:00
5:52 PM,75.9,53.1,45,30.02,10.0,East,6.9,-,N/A,,Clear,100,2013-06-14 22:52:00
6:52 PM,72.0,52.0,49,30.01,10.0,East,13.8,-,N/A,,Clear,90,2013-06-14 23:52:00
7:52 PM,68.0,51.1,55,30.03,10.0,East,9.2,-,N/A,,Clear,100,2013-06-15 00:52:00
8:52 PM,64.9,51.1,61,30.04,10.0,East,6.9,-,N/A,,Clear,100,2013-06-15 01:52:00
9:52 PM,62.1,51.1,67,30.04,10.0,East,4.6,-,N/A,,Clear,90,2013-06-15 02:52:00
10:52 PM,61.0,50.0,67,30.04,10.0,East,3.5,-,N/A,,Clear,90,2013-06-15 03:52:00
11:52 PM,59.0,50.0,72,30.02,10.0,East,3.5,-,N/A,,Clear,100,2013-06-15 04:52:00